[[{"header":{"parameterUnit":"m.s-1","parameterCategory":1,"la1":30.2991,"la2":30.254,"lo1":-89.0895,"lo2":-89.0444,"dy":0.0017,"dx":0.0017,"nx":28,"ny":28,"refTime":"2024-02-23T09:00:00:Z","depth":0,"parameterNumber":2,"parameterNumberName":"U-component_of_WINDS"},"data":[0,0,0,0,0,0,0,0,0,0,0,0,0,0,0,0,0,0,0,0,0,0,0,0,0,0,0,0,0,0,0,0,0,0,0,0,0,0,0,0,0,0,0,0,0,0,0,0,0,0,0,0,0,0,0,0,0,0,0.5198,0.5198,0,0.5192,0.5192,0.5192,0.5176,0.5176,0.5176,0.5176,0.5169,0.5169,0.5169,0,0,0,0,0,0,0,0,0,0,0,0,0,0.5197,0.5197,0.5198,0.5198,0.5198,0.5192,0.5192,0.5192,0.5177,0.5176,0.5176,0.5175,0.5169,0.5169,0.5169,0,0,0,0,0,0,0,0,0,0,0,0,0,0.5195,0.5197,0.5199,0.519,0.5189,0.5192,0.5192,0.5192,0.5177,0.5176,0.5176,0.5175,0.5169,0.5169,0.5169,0.5181,0,0,0.517,0.517,0,0,0,0,0,0,0,0,0.5195,0.5195,0.5191,0.519,0.519,0.5185,0.5189,0.5188,0.5177,0.5181,0.5176,0.5175,0.5175,0.5174,0.5174,0.518,0.518,0.517,0.517,0.517,0.517,0,0,0,0,0,0,0,0.5195,0.5195,0.5196,0.5191,0.519,0.5186,0.5186,0.5189,0.5181,0.5181,0.518,0.5179,0.5174,0.5174,0.5174,0.518,0.517,0.517,0.517,0.517,0.5196,0.5196,0,0,0,0,0,0,0.5197,0.5196,0.5196,0.5196,0.5191,0.5187,0.5186,0.5187,0.5181,0.5179,0.518,0.5179,0.5174,0.5174,0.5174,0.5187,0.517,0.517,0.5171,0.5195,0.5196,0.5197,0,0,0,0,0,0,0.5197,0.5197,0.5196,0.5195,0.5195,0.5187,0.5188,0.5187,0.5187,0.518,0.5178,0.5181,0.5174,0.5173,0.5179,0.5187,0.5171,0.5171,0.5195,0.5195,0.5196,0.5214,0,0,0,0,0,0,0.5197,0.5197,0.5201,0.5196,0.5195,0.5202,0.5189,0.5187,0.5187,0.5186,0.5181,0.518,0.5173,0.5179,0.5179,0.5187,0.5171,0.5194,0.5195,0.5196,0.5212,0.5215,0.5217,0,0,0,0,0,0.5197,0.5206,0.5201,0.5202,0.52,0.5202,0.5202,0.5195,0.5188,0.5192,0.5188,0.518,0.5186,0.518,0.518,0.5187,0.5193,0.5195,0.5196,0.5211,0.5214,0.5217,0,0,0,0,0,0,0.5212,0.5205,0.52,0.5208,0.5206,0.52,0.5205,0.5198,0.5198,0.5197,0.5187,0.5186,0.5194,0.5191,0.5185,0.5198,0.5188,0.519,0.52,0.5203,0.5205,0.5206,0.5171,0,0,0,0,0,0.5217,0.5219,0.5213,0.522,0.522,0.5212,0.5213,0.5208,0.5205,0.5204,0.52,0.5199,0.52,0.5201,0.5202,0.5212,0.5211,0.5217,0.522,0.5222,0.5223,0.5229,0.5232,0.5201,0.5201,0.5201,0,0,0.5226,0.5222,0.5224,0.5223,0.5221,0.5224,0.5212,0.5215,0.5218,0.5205,0.521,0.5207,0.5205,0.5213,0.5216,0.5211,0.5231,0.5223,0.5225,0.5225,0.523,0.5233,0.5236,0.5201,0.5201,0.5201,0,0,0.5244,0.5241,0.5247,0.5246,0.5243,0.5238,0.524,0.5235,0.5232,0.5238,0.5229,0.5231,0.5234,0.5233,0.5232,0.5251,0.5244,0.5251,0.5264,0.5269,0.5272,0.5274,0.5281,0.5284,0.5253,0.5253,0.5253,0,0.5255,0.5259,0.5251,0.5256,0.5256,0.5245,0.5251,0.525,0.5248,0.5248,0.5242,0.5246,0.5243,0.5251,0.5256,0.5256,0.5258,0.5252,0.5272,0.5274,0.5276,0.5283,0.5286,0.5254,0.5253,0.5253,0.5253,0,0.5274,0.5277,0.5282,0.5281,0.5281,0.5287,0.528,0.5282,0.5276,0.5272,0.5278,0.5275,0.5275,0.5277,0.5271,0.5284,0.5281,0.5274,0.5264,0.528,0.5286,0.5289,0.5255,0.5255,0.5254,0.5254,0,0,0.5301,0.5295,0.5298,0.5297,0.5294,0.5296,0.5301,0.5302,0.5304,0.5302,0.5307,0.531,0.5303,0.5303,0.5298,0.5302,0.5318,0.5295,0.5295,0.53,0.5333,0.5339,0.5342,0.5313,0.5314,0.5314,0.5333,0,0.5318,0.5327,0.532,0.533,0.5333,0.5323,0.5328,0.5326,0.5323,0.5325,0.5321,0.5324,0.5315,0.5315,0.5319,0.5315,0.5325,0.5314,0.5318,0.5318,0.5319,0.5345,0.5351,0.5369,0.5336,0.5336,0.5336,0,0.534,0.534,0.535,0.5347,0.5348,0.5352,0.5353,0.5355,0.5353,0.535,0.5351,0.5344,0.5349,0.5339,0.5346,0.5339,0.534,0.5339,0.5339,0.534,0.5329,0.5347,0.5375,0.5378,0.534,0.534,0.5339,0,0.5359,0.5362,0.5369,0.5369,0.5365,0.5368,0.5367,0.5364,0.5366,0.5366,0.5367,0.5368,0.5368,0.5369,0.5363,0.5356,0.5372,0.5361,0.537,0.537,0.5374,0.5374,0.5403,0.5374,0.5374,0.5374,0.5374,0,0.538,0.5387,0.5378,0.5382,0.539,0.5382,0.539,0.5387,0.5386,0.5389,0.5381,0.5384,0.5376,0.5379,0.5374,0.5382,0.5382,0.538,0.5379,0.5381,0.5381,0.5382,0.5381,0.5375,0.5375,0.5374,0.5374,0,0.5403,0.5397,0.5404,0.54,0.5399,0.5405,0.5402,0.5405,0.5402,0.5407,0.5407,0.5401,0.5405,0.5399,0.5401,0.5398,0.5408,0.5405,0.5409,0.5408,0.5418,0.5417,0.5449,0.5453,0.5421,0.5421,0.5421,0,0.5417,0.5422,0.5418,0.542,0.5419,0.5422,0.5424,0.5417,0.5418,0.5417,0.5421,0.5424,0.5425,0.5431,0.5427,0.5429,0.5426,0.5437,0.5426,0.5429,0.5427,0.5427,0.5428,0.5439,0.544,0.544,0.544,0,0.5441,0.5439,0.5441,0.5442,0.5444,0.5445,0.5445,0.5447,0.5439,0.5442,0.5445,0.5446,0.5449,0.5452,0.5453,0.5452,0.5445,0.5444,0.5446,0.5448,0.5451,0.545,0.5415,0.5443,0.5443,0.5442,0.5442,0.5442,0.5461,0.5465,0.5463,0.5466,0.5466,0.5466,0.547,0.5467,0.5469,0.5471,0.5467,0.5471,0.547,0.5471,0.547,0.5474,0.5469,0.5472,0.5473,0.5474,0.5476,0.545,0.5474,0.5474,0.5474,0.5474,0.5474,0,0.5485,0.5484,0.5487,0.5488,0.549,0.5484,0.5483,0.5486,0.549,0.549,0.5492,0.5496,0.5499,0.5495,0.5498,0.5501,0.5498,0.5502,0.5502,0.5502,0.548,0.5478,0.5505,0.5505,0.5505,0.5505,0.5505,0.5505,0.5499,0.5506,0.5503,0.551,0.5509,0.5514,0.5514,0.5515,0.5514,0.552,0.5522,0.552,0.5518,0.5521,0.5523,0.5522,0.5524,0.5529,0.5527,0.5506,0.5503,0.5501,0.5499,0.5529,0.5529,0.5548,0.5548,0.5549]},{"header":{"parameterUnit":"m.s-1","parameterCategory":1,"la1":30.2991,"la2":30.254,"lo1":-89.0895,"lo2":-89.0444,"dy":0.0017,"dx":0.0017,"nx":28,"ny":28,"refTime":"2024-02-23T09:00:00:Z","depth":0,"parameterNumber":3,"parameterNumberName":"V-component_of_WINDS"},"data":[0,0,0,0,0,0,0,0,0,0,0,0,0,0,0,0,0,0,0,0,0,0,0,0,0,0,0,0,0,0,0,0,0,0,0,0,0,0,0,0,0,0,0,0,0,0,0,0,0,0,0,0,0,0,0,0,0,0,-1.7809,-1.781,0,-1.7879,-1.788,-1.788,-1.7895,-1.7895,-1.7894,-1.7894,-1.7964,-1.7966,-1.7968,0,0,0,0,0,0,0,0,0,0,0,0,0,-1.7688,-1.769,-1.7809,-1.781,-1.7811,-1.7879,-1.788,-1.7881,-1.7895,-1.7895,-1.7894,-1.7894,-1.7963,-1.7966,-1.7968,0,0,0,0,0,0,0,0,0,0,0,0,0,-1.7748,-1.7691,-1.7809,-1.7827,-1.7829,-1.7879,-1.788,-1.7881,-1.7896,-1.7895,-1.7894,-1.7893,-1.7962,-1.7965,-1.7969,-1.8006,0,0,-1.798,-1.7981,0,0,0,0,0,0,0,0,-1.7744,-1.7752,-1.7823,-1.7825,-1.7828,-1.7878,-1.7863,-1.7923,-1.7896,-1.787,-1.7894,-1.7893,-1.7936,-1.7941,-1.7956,-1.8009,-1.8012,-1.798,-1.7982,-1.7984,-1.7984,0,0,0,0,0,0,0,-1.774,-1.7749,-1.7837,-1.7824,-1.7827,-1.7831,-1.7838,-1.7874,-1.7906,-1.7872,-1.7874,-1.7882,-1.7937,-1.7952,-1.7958,-1.8013,-1.798,-1.7983,-1.7985,-1.7986,-1.81,-1.8101,0,0,0,0,0,0,-1.7733,-1.7746,-1.7835,-1.7839,-1.7783,-1.7833,-1.7842,-1.7862,-1.7906,-1.7912,-1.7882,-1.7882,-1.7947,-1.7954,-1.796,-1.8007,-1.7983,-1.7987,-1.7989,-1.8099,-1.8101,-1.8102,0,0,0,0,0,0,-1.773,-1.7741,-1.7832,-1.7793,-1.7804,-1.7836,-1.7859,-1.7864,-1.788,-1.7913,-1.7919,-1.7892,-1.7947,-1.7955,-1.7995,-1.8009,-1.7988,-1.7992,-1.8098,-1.81,-1.8101,-1.8099,0,0,0,0,0,0,-1.7727,-1.774,-1.7754,-1.7793,-1.7806,-1.7865,-1.786,-1.7866,-1.7886,-1.7887,-1.7925,-1.793,-1.7947,-1.7989,-1.7998,-1.8014,-1.7994,-1.8097,-1.8099,-1.8101,-1.8098,-1.81,-1.8102,0,0,0,0,0,-1.7722,-1.7751,-1.7755,-1.7766,-1.7825,-1.7866,-1.7874,-1.7893,-1.7887,-1.7902,-1.7924,-1.7929,-1.8006,-1.7993,-1.8003,-1.802,-1.8096,-1.8098,-1.8101,-1.8097,-1.81,-1.8102,0,0,0,0,0,0,-1.7712,-1.7756,-1.7761,-1.7803,-1.7831,-1.7868,-1.7888,-1.7895,-1.7925,-1.7924,-1.7945,-1.7954,-1.7992,-1.801,-1.7995,-1.8058,-1.8051,-1.8055,-1.8045,-1.8048,-1.805,-1.8045,-1.7997,0,0,0,0,0,-1.7715,-1.7745,-1.7781,-1.7814,-1.7828,-1.7855,-1.7874,-1.7886,-1.7916,-1.7927,-1.7952,-1.798,-1.8011,-1.803,-1.806,-1.8101,-1.8109,-1.8117,-1.812,-1.8121,-1.8124,-1.8148,-1.8152,-1.8108,-1.8108,-1.8108,0,0,-1.7721,-1.7748,-1.7765,-1.7813,-1.7836,-1.7866,-1.7865,-1.7897,-1.7919,-1.7932,-1.7971,-1.799,-1.8023,-1.8063,-1.8082,-1.8079,-1.8138,-1.8124,-1.8125,-1.8127,-1.815,-1.8154,-1.8158,-1.811,-1.811,-1.8109,0,0,-1.7746,-1.777,-1.7801,-1.7824,-1.7859,-1.7877,-1.7884,-1.7922,-1.7935,-1.7974,-1.7984,-1.8011,-1.8064,-1.8087,-1.8105,-1.814,-1.8146,-1.815,-1.816,-1.8183,-1.8186,-1.8189,-1.8202,-1.8206,-1.8153,-1.8153,-1.8153,0,-1.7749,-1.7795,-1.7815,-1.7847,-1.7867,-1.7881,-1.7912,-1.7933,-1.7976,-1.799,-1.7986,-1.8053,-1.8076,-1.8122,-1.813,-1.8145,-1.8154,-1.8145,-1.8184,-1.8187,-1.8191,-1.8203,-1.8208,-1.8153,-1.8153,-1.8153,-1.8153,0,-1.7796,-1.7828,-1.7848,-1.789,-1.7913,-1.7944,-1.7969,-1.799,-1.8,-1.8018,-1.8058,-1.8087,-1.8123,-1.8135,-1.8145,-1.8182,-1.818,-1.818,-1.8173,-1.8195,-1.8207,-1.8211,-1.8153,-1.8153,-1.8153,-1.8153,0,0,-1.7817,-1.787,-1.7878,-1.7897,-1.7937,-1.7962,-1.7993,-1.8029,-1.8047,-1.8076,-1.8103,-1.8147,-1.8148,-1.8169,-1.8182,-1.8202,-1.8228,-1.82,-1.8201,-1.8204,-1.8271,-1.8271,-1.8276,-1.8232,-1.8233,-1.8234,-1.8268,0,-1.7848,-1.7905,-1.7925,-1.7972,-1.8002,-1.8015,-1.8043,-1.807,-1.8089,-1.8116,-1.8136,-1.8167,-1.8166,-1.8179,-1.8199,-1.822,-1.8242,-1.8218,-1.8257,-1.8259,-1.8249,-1.8282,-1.8282,-1.8313,-1.8273,-1.8274,-1.8275,0,-1.7891,-1.7922,-1.7973,-1.8009,-1.8023,-1.8047,-1.8082,-1.8108,-1.814,-1.8151,-1.8175,-1.8187,-1.822,-1.8212,-1.8258,-1.8242,-1.8259,-1.8272,-1.8274,-1.8278,-1.8268,-1.8287,-1.8323,-1.8328,-1.8282,-1.8282,-1.8281,0,-1.7902,-1.7956,-1.7993,-1.8009,-1.8053,-1.807,-1.8089,-1.8119,-1.814,-1.817,-1.8184,-1.8217,-1.8236,-1.8261,-1.8281,-1.8273,-1.8326,-1.8319,-1.8337,-1.8336,-1.8347,-1.8346,-1.8386,-1.8358,-1.8358,-1.8358,-1.8358,0,-1.7934,-1.7964,-1.7998,-1.8021,-1.8056,-1.8078,-1.8111,-1.8131,-1.8158,-1.8185,-1.8199,-1.8223,-1.8249,-1.8277,-1.8293,-1.8329,-1.8337,-1.8348,-1.8351,-1.8346,-1.8345,-1.8358,-1.8356,-1.8359,-1.8359,-1.8359,-1.8359,0,-1.7951,-1.7975,-1.8017,-1.8055,-1.8065,-1.8089,-1.8122,-1.8145,-1.8163,-1.8197,-1.8207,-1.8236,-1.827,-1.8293,-1.8336,-1.8347,-1.8386,-1.839,-1.8376,-1.8378,-1.8394,-1.8392,-1.8444,-1.8452,-1.8418,-1.8419,-1.8419,0,-1.797,-1.7994,-1.8035,-1.8054,-1.8074,-1.8104,-1.8126,-1.8148,-1.817,-1.8207,-1.8226,-1.8261,-1.829,-1.8343,-1.8368,-1.8402,-1.8406,-1.8422,-1.8411,-1.8405,-1.8406,-1.8405,-1.8407,-1.8423,-1.8424,-1.8424,-1.8424,0,-1.8002,-1.8012,-1.8043,-1.8077,-1.8102,-1.8131,-1.8159,-1.8174,-1.8201,-1.8225,-1.826,-1.8282,-1.8327,-1.8361,-1.8397,-1.8416,-1.8425,-1.8427,-1.8433,-1.8428,-1.8419,-1.8424,-1.838,-1.8426,-1.8426,-1.8426,-1.8425,-1.8425,-1.8021,-1.8042,-1.8075,-1.8108,-1.8132,-1.8158,-1.8182,-1.8204,-1.8234,-1.8272,-1.8283,-1.832,-1.8351,-1.84,-1.842,-1.8449,-1.8447,-1.8456,-1.8458,-1.846,-1.846,-1.8415,-1.8455,-1.8455,-1.8455,-1.8455,-1.8455,0,-1.8053,-1.8074,-1.8105,-1.8144,-1.817,-1.8177,-1.8208,-1.823,-1.8262,-1.829,-1.8319,-1.836,-1.8393,-1.8421,-1.8456,-1.8474,-1.8479,-1.8482,-1.8481,-1.8485,-1.8459,-1.845,-1.8478,-1.8478,-1.8478,-1.8478,-1.8478,-1.8478,-1.8072,-1.811,-1.8125,-1.8174,-1.8196,-1.8232,-1.825,-1.8274,-1.8297,-1.8341,-1.837,-1.8388,-1.8416,-1.8453,-1.8485,-1.8492,-1.8504,-1.8507,-1.8515,-1.849,-1.8487,-1.8485,-1.8477,-1.8509,-1.8509,-1.8539,-1.854,-1.854]}]]